Location: Newark
(40.3500°N, 15.2333°E)
Time: 00:45:34
(UTC+00:00)

NOAA 15 - Pass Details

Date: 01 March 2020
Orbit: 797 x 813 km, 98.7° (Epoch: 01 April)

Event Time Altitude Azimuth Distance (km) Brightness Sun altitude
Rises 19:12:17 0° 222° (SW) 3,324 8.1 -27.5°
Reaches altitude 10° 19:17:06 10° 261° (W) 2,401 7.9 -28.4°
Maximum altitude 19:18:01 10° 272° (W) 2,373 7.9 -28.6°
Drops below altitude 10° 19:18:57 10° 282° (WNW) 2,404 8.0 -28.7°
Sets 19:23:49 0° 322° (NW) 3,342 8.6 -29.6°
